Location: Kellogg
(38.0159°N, 90.0546°W)
Time: 02:59:26
(UTC+00:00)

SR - Pass Details

Date: 17 September 2024
Orbit: 577 x 855 km, 66.7° (Epoch: 10 October)

Event Time Altitude Azimuth Distance (km) Brightness Sun altitude
Rises 05:28:09 0° 304° (NW) 3,038 - -49.5°
Reaches altitude 10° 05:32:54 10° 262° (W) 2,205 - -49.6°
Maximum altitude 05:33:30 10° 255° (WSW) 2,202 - -49.6°
Drops below altitude 10° 05:34:05 10° 248° (WSW) 2,226 - -49.7°
Sets 05:39:07 0° 207° (SSW) 3,234 - -49.8°
